Regional Weather Roundup
Issued by NWS

Home | Current Version | Previous Version | Graphics & Text | Print | Product List | Glossary On
Versions: 1 2 3 4 5 6 7 8 9 10 11 12 13 14 15 16 17 18 19 20 21 22 23 24 25 26 27 28 29 30 31 32 33 34 35 36 37 38 39 40 41 42 43 44 45 46 47 48 49 50
438
ASUS43 KBIS 110731
RWRND
NORTH DAKOTA REGIONAL WEATHER ROUNDUP
NATIONAL WEATHER SERVICE EASTERN NORTH DAKOTA/GRAND FORKS ND
100 AM CST THU FEB 11 2016

  NOTE: "FAIR" INDICATES FEW OR NO CLOUDS BELOW 12,000 FEET WITH NO
  SIGNIFICANT WEATHER AND/OR OBSTRUCTIONS TO VISIBILITY.

NDZ001>003-009>011-017-110800-
...NORTHWEST NORTH DAKOTA...

CITY           SKY/WX    TMP DP  RH WIND       PRES   REMARKS
WILLISTON      CLOUDY    26  21  81 SE3       30.14R
MINOT          CLOUDY    14   6  70 S6        30.17F WCI   5
MINOT AFB      NOT AVBL
$$

NDZ018>021-031>035-040>046-110800-
...SOUTHWEST NORTH DAKOTA...

CITY           SKY/WX    TMP DP  RH WIND       PRES   REMARKS
BISMARCK       CLOUDY    17  11  77 SE6       30.19F WCI   9
DICKINSON      CLOUDY    24  22  91 E5        30.08F WCI  18
GARRISON         N/A     13   9  84 SE5       30.16F WCI   5
HETTINGER      CLOUDY    27  23  85 S8        30.11F WCI  19
$$

NDZ004>008-012>016-024-026-027-054-110800-
...NORTHEAST NORTH DAKOTA...

CITY           SKY/WX    TMP DP  RH WIND       PRES   REMARKS
GRAND FORKS    CLOUDY     1  -4  79 CALM      30.30F
GRAND FORKS AF CLOUDY    -3  -8  79 SW3       30.29S
DEVILS LAKE    CLOUDY    -1  -4  87 SE6       30.23  WCI -13
$$

NDZ022-023-025-028>030-036>039-047>053-110800-
...SOUTHEAST NORTH DAKOTA...

CITY           SKY/WX    TMP DP  RH WIND       PRES   REMARKS
JAMESTOWN      CLOUDY     4  -1  80 SE3       30.22F
FARGO          CLOUDY     5  -2  72 N3        30.29F
WAHPETON       CLOUDY     3   0  85 N3        30.28F
$$




USA.gov is the U.S. government's official web portal to all federal, state and local government web resources and services.